Oelwein, IA

4:10 AM CDT on September 29, 2016 (GMT -0500)
Oelwein Municipal

Weather History for KOLZ - January, 2014

Change the Weather History Date:

Wednesday, January 8, 2014

  Actual Average Record
Temperature  
Mean Temperature -2 °F -  
Max Temperature 5 °F 21 °F 57 °F (2002)
Min Temperature -9 °F 3 °F -21 °F (1970)
Degree Days  
Heating Degree Days 67    
Moisture  
Dew Point -10 °F    
Average Humidity 71    
Maximum Humidity 78    
Minimum Humidity 61    
Precipitation  
Precipitation 0.00 in - - ()
Sea Level Pressure  
Sea Level Pressure 30.38 in    
Wind  
Wind Speed 5 mph (NNW)    
Max Wind Speed 12 mph    
Max Gust Speed -    
Visibility 10 miles    
Events      
Averages and records for this station are not official NWS values.
T = Trace of Precipitation, MM = Missing Value Source: NWS Daily Summary

Daily Weather History Graph

Daily Weather History Graph

Search for Another Location

Airport or City:

Trip Planner

Search our weather history database for the weather conditions in past years. The results will help you decide how hot, cold, wet, or windy it might be!

Date:

Astronomy

Jan. 08, 2014 Rise Set
Actual Time 7:37 AM CST 4:51 PM CST
Civil Twilight 7:06 AM CST 5:23 PM CST
Nautical Twilight 6:30 AM CST 5:58 PM CST
Astronomical Twilight 5:56 AM CST 6:32 PM CST
Moon 11:48 AM CST (1/8) 12:38 AM CST (1/8)
Length of Visible Light 10h 17m
Length of Day
9h 14m
First Quarter, 56% of the Moon is Illuminated
Jan 8
First Quarter
Jan 15
Full
Jan 23
Last Quarter
Jan 30
New
Feb 6
First Quarter

Hourly Weather History & Observations

Time (CST) Temp. Windchill Dew Point Humidity Pressure Visibility Wind Dir Wind Speed Gust Speed Precip Events Conditions
12:15 AM -7.6 °F - -13.0 °F 77% 30.24 in 10.0 mi Calm Calm - N/A   Clear
12:55 AM -5.8 °F - -11.2 °F 77% 30.24 in 10.0 mi Calm Calm - N/A   Clear
1:15 AM -4.0 °F - -9.4 °F 78% 30.25 in 10.0 mi Calm Calm - N/A   Clear
1:35 AM -0.4 °F -10.4 °F -7.6 °F 72% 30.25 in 10.0 mi NW 4.6 mph - N/A   Clear
1:55 AM -2.2 °F -15.6 °F -9.4 °F 71% 30.26 in 10.0 mi NW 6.9 mph - N/A   Clear
2:15 AM -5.8 °F -19.9 °F -11.2 °F 77% 30.28 in 10.0 mi NW 6.9 mph - N/A   Clear
2:35 AM -7.6 °F -20.6 °F -14.8 °F 71% 30.29 in 10.0 mi NW 5.8 mph - N/A   Clear
2:55 AM -5.8 °F -19.9 °F -11.2 °F 77% 30.29 in 10.0 mi NW 6.9 mph - N/A   Clear
3:15 AM -4.0 °F -14.6 °F -11.2 °F 71% 30.29 in 10.0 mi NNW 4.6 mph - N/A   Clear
3:35 AM -5.8 °F -16.7 °F -11.2 °F 77% 30.29 in 10.0 mi NNW 4.6 mph - N/A   Clear
3:55 AM -5.8 °F -16.7 °F -11.2 °F 77% 30.29 in 10.0 mi NNW 4.6 mph - N/A   Clear
4:15 AM -5.8 °F -14.5 °F -11.2 °F 77% 30.30 in 10.0 mi NW 3.5 mph - N/A   Clear
4:35 AM -5.8 °F -19.9 °F -13.0 °F 71% 30.30 in 10.0 mi NNW 6.9 mph - N/A   Clear
4:55 AM -5.8 °F -18.4 °F -11.2 °F 77% 30.30 in 10.0 mi NNW 5.8 mph - N/A   Clear
5:15 AM -5.8 °F -16.7 °F -11.2 °F 77% 30.30 in 10.0 mi NNW 4.6 mph - N/A   Clear
5:35 AM -7.6 °F -18.8 °F -13.0 °F 77% 30.31 in 10.0 mi NW 4.6 mph - N/A   Clear
5:55 AM -5.8 °F -18.4 °F -11.2 °F 77% 30.32 in 10.0 mi NNW 5.8 mph - N/A   Clear
6:15 AM -5.8 °F -18.4 °F -11.2 °F 77% 30.32 in 10.0 mi NNW 5.8 mph - N/A   Clear
6:35 AM -4.0 °F -17.8 °F -11.2 °F 71% 30.32 in 10.0 mi NNW 6.9 mph - N/A   Clear
6:55 AM -5.8 °F -16.7 °F -11.2 °F 77% 30.32 in 10.0 mi NNW 4.6 mph - N/A   Clear
7:15 AM -5.8 °F -14.5 °F -13.0 °F 71% 30.33 in 10.0 mi NNW 3.5 mph - N/A   Clear
7:35 AM -5.8 °F -16.7 °F -13.0 °F 71% 30.34 in 10.0 mi NW 4.6 mph - N/A   Clear
7:55 AM -7.6 °F - -13.0 °F 77% 30.36 in 10.0 mi Calm Calm - N/A   Clear
8:15 AM -5.8 °F -16.7 °F -13.0 °F 71% 30.37 in 10.0 mi WNW 4.6 mph - N/A   Clear
8:35 AM -5.8 °F -18.4 °F -13.0 °F 71% 30.38 in 10.0 mi WNW 5.8 mph - N/A   Clear
8:55 AM -4.0 °F -16.3 °F -11.2 °F 71% 30.38 in 10.0 mi NW 5.8 mph - N/A   Clear
9:15 AM -4.0 °F -14.6 °F -9.4 °F 78% 30.39 in 10.0 mi NW 4.6 mph - N/A   Clear
9:35 AM -4.0 °F -14.6 °F -9.4 °F 78% 30.40 in 10.0 mi NW 4.6 mph - N/A   Clear
9:55 AM -2.2 °F -14.2 °F -9.4 °F 71% 30.40 in 10.0 mi NW 5.8 mph - N/A   Clear
10:15 AM -2.2 °F -12.5 °F -9.4 °F 71% 30.41 in 10.0 mi NW 4.6 mph - N/A   Clear
10:35 AM -0.4 °F -10.4 °F -7.6 °F 72% 30.41 in 10.0 mi NW 4.6 mph - N/A   Clear
10:55 AM -0.4 °F -10.4 °F -7.6 °F 72% 30.41 in 10.0 mi NW 4.6 mph - N/A   Clear
11:15 AM 1.4 °F -9.9 °F -7.6 °F 66% 30.41 in 10.0 mi NW 5.8 mph - N/A   Clear
11:35 AM 1.4 °F -9.9 °F -7.6 °F 66% 30.40 in 10.0 mi NW 5.8 mph - N/A   Clear
11:55 AM 3.2 °F -7.8 °F -7.6 °F 61% 30.40 in 10.0 mi NW 5.8 mph - N/A   Clear
12:15 PM 3.2 °F -9.1 °F -5.8 °F 66% 30.39 in 10.0 mi NW 6.9 mph - N/A   Clear
12:35 PM 3.2 °F -10.3 °F -5.8 °F 66% 30.39 in 10.0 mi NW 8.1 mph - N/A   Clear
12:55 PM 5.0 °F -6.9 °F -5.8 °F 61% 30.39 in 10.0 mi NW 6.9 mph - N/A   Clear
1:15 PM 5.0 °F -6.9 °F -5.8 °F 61% 30.39 in - NW 6.9 mph - N/A   Clear
1:35 PM 5.0 °F -9.1 °F -5.8 °F 61% 30.39 in 10.0 mi NNW 9.2 mph - N/A   Clear
1:55 PM 5.0 °F -10.0 °F -5.8 °F 61% 30.39 in 10.0 mi NNW 10.4 mph - N/A   Clear
2:15 PM 5.0 °F -10.8 °F -5.8 °F 61% 30.40 in 10.0 mi NNW 11.5 mph - N/A   Clear
2:35 PM 5.0 °F -10.0 °F -5.8 °F 61% 30.40 in 10.0 mi NNW 10.4 mph - N/A   Clear
2:55 PM 5.0 °F -6.9 °F -5.8 °F 61% 30.41 in 10.0 mi NNW 6.9 mph - N/A   Clear
3:15 PM 5.0 °F -6.9 °F -4.0 °F 66% 30.42 in 10.0 mi NNW 6.9 mph - N/A   Clear
3:35 PM 5.0 °F -5.6 °F -5.8 °F 61% 30.43 in 10.0 mi NNW 5.8 mph - N/A   Clear
3:55 PM 5.0 °F -6.9 °F -5.8 °F 61% 30.43 in 10.0 mi North 6.9 mph - N/A   Clear
4:15 PM 3.2 °F -11.3 °F -5.8 °F 66% 30.42 in 10.0 mi North 9.2 mph - N/A   Clear
4:35 PM 1.4 °F -11.3 °F -7.6 °F 66% 30.42 in 10.0 mi North 6.9 mph - N/A   Clear
4:55 PM 1.4 °F -8.3 °F -7.6 °F 66% 30.43 in 10.0 mi North 4.6 mph - N/A   Clear
5:15 PM -0.4 °F -10.4 °F -7.6 °F 72% 30.43 in 10.0 mi NNW 4.6 mph - N/A   Clear
5:35 PM 1.4 °F -11.3 °F -7.6 °F 66% 30.43 in 10.0 mi North 6.9 mph - N/A   Clear
5:55 PM -0.4 °F -12.0 °F -7.6 °F 72% 30.43 in 10.0 mi North 5.8 mph - N/A   Clear
6:15 PM -0.4 °F -12.0 °F -7.6 °F 72% 30.44 in 10.0 mi North 5.8 mph - N/A   Clear
6:35 PM -0.4 °F -10.4 °F -9.4 °F 66% 30.44 in 10.0 mi North 4.6 mph - N/A   Clear
6:55 PM -0.4 °F -13.4 °F -9.4 °F 66% 30.44 in 10.0 mi North 6.9 mph - N/A   Clear
7:15 PM -2.2 °F -14.2 °F -9.4 °F 71% 30.45 in 10.0 mi North 5.8 mph - N/A   Clear
7:35 PM -2.2 °F -12.5 °F -11.2 °F 66% 30.46 in 10.0 mi North 4.6 mph - N/A   Clear
7:55 PM -4.0 °F - -11.2 °F 71% 30.46 in 10.0 mi Calm Calm - N/A   Clear
8:15 PM -4.0 °F -14.6 °F -11.2 °F 71% 30.46 in 10.0 mi NNE 4.6 mph - N/A   Clear
8:35 PM -4.0 °F -14.6 °F -11.2 °F 71% 30.46 in 10.0 mi NE 4.6 mph - N/A   Clear
8:55 PM -4.0 °F -14.6 °F -11.2 °F 71% 30.46 in 10.0 mi NNE 4.6 mph - N/A   Clear
9:15 PM -4.0 °F -14.6 °F -11.2 °F 71% 30.46 in 10.0 mi NNE 4.6 mph - N/A   Clear
9:35 PM -5.8 °F -16.7 °F -13.0 °F 71% 30.46 in 10.0 mi NE 4.6 mph - N/A   Clear
9:55 PM -7.6 °F -18.8 °F -14.8 °F 71% 30.46 in 10.0 mi NE 4.6 mph - N/A   Clear
10:15 PM -7.6 °F -20.6 °F -14.8 °F 71% 30.45 in 10.0 mi NE 5.8 mph - N/A   Clear
10:35 PM -7.6 °F -22.1 °F -13.0 °F 77% 30.45 in 10.0 mi NE 6.9 mph - N/A   Clear
10:55 PM -7.6 °F -23.4 °F -14.8 °F 71% 30.44 in 10.0 mi NE 8.1 mph - N/A   Clear
11:15 PM -9.4 °F -22.7 °F -14.8 °F 77% 30.44 in 10.0 mi ENE 5.8 mph - N/A   Clear
11:35 PM -9.4 °F -24.3 °F -14.8 °F 77% 30.44 in 10.0 mi East 6.9 mph - N/A   Partly Cloudy
11:55 PM -9.4 °F -22.7 °F -14.8 °F 77% 30.43 in 10.0 mi East 5.8 mph - N/A   Partly Cloudy